Date,TemperatureHighF,TemperatureAvgF,TemperatureLowF,DewpointHighF,DewpointAvgF,DewpointLowF,HumidityHigh,HumidityAvg,HumidityLow,PressureMaxIn,PressureMinIn,WindSpeedMaxMPH,WindSpeedAvgMPH,GustSpeedMaxMPH,PrecipitationSumIn
2013-1-1,33,24,17,32,20,12,94,83,70,30.29,30.10,13,1,13,0.00
2013-1-2,33,21,12,20,14,9,91,77,49,30.30,30.20,6,0,6,0.03
2013-1-3,40,29,18,30,23,14,90,77,60,30.40,30.22,17,2,17,0.07
2013-1-4,41,31,23,27,23,19,88,71,51,30.45,30.30,18,2,18,0.01
2013-1-5,46,37,26,33,27,20,84,69,53,30.32,30.09,15,1,15,0.00
2013-1-6,41,34,23,33,25,18,82,70,53,30.40,30.08,21,3,21,0.00
2013-1-7,48,33,19,29,24,16,98,71,43,30.40,30.14,14,2,14,0.00
2013-1-8,57,42,28,36,28,22,86,60,27,30.21,30.07,16,1,16,0.00
2013-1-9,60,49,41,45,38,30,93,68,43,30.45,30.15,15,1,15,0.00
2013-1-10,57,46,42,56,42,32,98,87,62,30.43,29.76,20,2,20,0.81
2013-1-11,64,55,47,55,49,45,97,82,61,29.86,29.74,19,3,19,0.00
2013-1-12,60,47,31,52,42,29,93,82,53,29.93,29.77,18,3,18,0.87
2013-1-13,31,25,17,29,21,13,93,85,76,30.38,29.90,17,3,17,0.00
2013-1-14,30,21,14,18,14,10,89,76,54,30.52,30.38,7,0,7,0.00
2013-1-15,32,23,13,22,17,10,92,79,61,30.44,30.13,11,1,11,0.00
2013-1-16,43,30,18,24,20,15,91,68,43,30.17,30.02,18,2,18,0.00
2013-1-17,43,35,25,32,24,18,85,66,42,30.49,30.12,19,2,19,0.00
2013-1-18,56,38,21,30,24,17,88,61,34,30.50,30.11,20,2,20,0.00
2013-1-19,67,52,38,37,33,28,67,50,31,30.12,29.88,24,5,25,0.00
2013-1-20,48,34,25,32,18,12,71,51,33,30.34,30.10,20,2,20,0.00
2013-1-21,30,22,16,13,6,-2,71,51,31,30.41,30.29,21,4,21,0.00
2013-1-22,21,17,13,12,5,-1,82,59,46,30.50,30.38,9,0,9,0.00
2013-1-23,46,29,13,25,18,9,89,65,42,30.39,30.14,15,2,15,0.00
2013-1-24,29,24,16,15,10,4,72,56,42,30.60,30.23,16,3,16,0.00
2013-1-25,45,35,26,24,19,13,63,53,41,30.26,30.11,17,2,17,0.00
2013-1-26,45,34,26,22,19,15,74,56,34,30.39,30.22,8,1,10,0.00
2013-1-27,54,37,28,53,34,19,97,87,67,30.30,29.94,16,3,16,0.25
2013-1-28,75,62,54,64,58,53,96,87,67,29.96,29.81,14,3,20,0.00
2013-1-29,67,61,53,61,58,52,96,89,75,29.81,29.39,25,4,28,1.43
2013-1-30,53,39,28,52,35,18,97,85,67,29.93,29.32,29,6,29,0.14
2013-1-31,36,26,12,26,17,2,86,69,58,30.41,29.93,25,6,25,0.00
2013-2-1,30,20,8,14,6,1,76,56,39,30.53,30.23,11,2,20,0.00
2013-2-2,47,35,27,30,22,12,86,60,44,30.23,30.05,22,3,22,0.00
2013-2-3,38,32,26,29,23,16,93,72,46,30.20,29.99,23,3,23,0.16
2013-2-4,62,41,29,39,30,22,83,66,38,30.00,29.75,24,3,24,0.00
2013-2-5,60,40,25,38,30,22,91,69,39,30.12,29.88,21,2,21,0.00
2013-2-6,54,40,26,34,30,23,94,69,43,30.23,30.03,14,2,14,0.00
2013-2-7,56,44,36,47,38,30,93,80,59,30.04,29.84,17,2,17,0.12
2013-2-8,40,35,31,37,31,27,91,83,76,30.37,30.03,17,3,17,0.00
2013-2-9,44,35,29,35,29,26,92,78,62,30.37,30.00,18,3,18,0.23
2013-2-10,57,47,38,54,42,32,98,84,44,30.01,29.57,33,5,33,0.58
2013-2-11,47,40,37,33,28,26,69,63,56,30.01,29.77,33,9,33,0.00
2013-2-12,48,41,38,33,31,30,76,67,52,30.05,29.93,5,0,5,0.00
2013-2-13,57,44,36,35,32,28,86,64,34,29.94,29.78,20,3,20,0.00
2013-2-14,58,47,39,38,33,30,74,59,37,30.05,29.79,20,4,20,0.00
2013-2-15,43,36,28,31,20,13,76,54,33,30.27,30.05,17,3,17,0.00
2013-2-16,41,29,20,17,13,8,77,54,29,30.28,30.17,14,2,14,0.00
2013-2-17,50,36,21,32,23,10,77,60,36,30.18,29.89,16,3,16,0.00
2013-2-18,58,46,33,49,40,24,95,78,65,29.91,29.53,33,6,33,0.17
2013-2-19,39,30,24,26,17,11,77,58,36,30.31,29.91,26,6,26,0.00
2013-2-20,29,24,18,16,12,9,76,61,53,30.42,30.30,10,1,10,0.00
2013-2-21,31,30,26,30,28,24,95,94,92,29.94,29.82,18,3,18,0.00
2013-2-22,35,31,21,33,27,16,96,86,65,30.09,29.80,20,2,20,0.14
2013-2-23,40,28,18,24,20,15,98,71,49,30.07,29.98,12,1,12,0.51
2013-2-24,46,32,18,31,23,15,100,71,47,30.12,30.02,12,1,12,0.21
2013-2-25,47,38,29,35,31,25,92,75,55,30.06,29.57,21,3,21,0.32
2013-2-26,43,36,33,42,35,32,97,95,92,29.67,29.33,18,3,18,0.78
2013-2-27,35,33,31,32,31,28,94,92,88,29.90,29.67,20,4,20,0.05
2013-2-28,36,33,31,31,29,28,92,87,79,30.11,29.89,15,3,15,0.00
2013-3-1,34,31,28,31,28,25,93,89,82,30.20,30.07,14,2,14,0.09
2013-3-2,36,29,21,26,21,16,88,74,56,30.26,30.19,16,3,16,0.02
2013-3-3,40,30,16,28,21,12,92,69,50,30.23,30.02,12,1,12,0.01
2013-3-4,54,44,35,42,34,27,85,69,50,30.02,29.73,20,4,20,0.01
2013-3-5,44,35,31,38,30,24,94,80,64,30.13,29.76,24,5,24,0.11
2013-3-6,42,33,24,30,24,19,82,69,55,30.36,30.13,19,4,19,0.00
2013-3-7,50,34,21,34,26,18,92,73,46,30.42,30.29,11,2,11,0.00
2013-3-8,55,42,29,38,31,26,91,69,45,30.42,30.17,17,3,17,0.00
2013-3-9,70,52,40,47,38,32,93,61,30,30.18,29.77,24,4,24,0.36
2013-3-10,60,54,45,52,48,43,96,81,55,29.78,29.61,27,2,27,1.49
2013-3-11,46,36,33,43,32,27,93,86,75,30.00,29.71,23,5,23,0.01
2013-3-12,53,38,28,32,27,24,87,66,38,30.21,29.98,27,5,27,0.00
2013-3-13,45,34,27,24,20,17,74,58,38,30.42,30.19,19,4,23,0.00
2013-3-14,55,38,25,34,27,19,85,65,41,30.41,30.08,16,2,16,0.02
2013-3-15,74,52,30,49,40,28,94,67,35,30.09,29.62,12,1,12,0.00
2013-3-16,66,49,39,48,40,36,91,74,47,30.04,29.60,23,4,23,0.00
2013-3-17,39,36,33,36,34,31,96,92,86,30.09,29.76,17,3,17,1.37
2013-3-18,50,41,37,42,36,24,97,81,52,30.02,29.67,20,3,20,0.01
2013-3-19,50,39,31,24,20,13,67,47,26,30.21,29.99,18,2,18,0.00
2013-3-20,39,32,26,30,20,12,89,62,40,30.29,30.12,20,4,20,0.00
2013-3-21,43,30,18,25,16,12,82,58,38,30.13,29.98,10,1,10,0.00
2013-3-22,43,37,32,29,25,21,71,63,51,30.04,29.97,12,1,12,0.00
2013-3-23,57,45,37,38,30,24,83,58,39,30.03,29.81,16,2,16,0.04
2013-3-24,44,33,31,38,32,29,100,93,83,29.84,29.56,16,3,16,0.14
2013-3-25,38,32,28,33,28,26,94,85,68,30.20,29.82,19,4,19,0.38
2013-3-26,43,34,27,27,25,22,83,70,49,30.36,30.19,14,2,16,0.24
2013-3-27,50,36,22,34,26,19,93,69,42,30.40,30.28,10,1,10,0.01
2013-3-28,60,47,36,42,35,28,77,64,50,30.34,30.20,15,2,15,0.00
2013-3-29,66,52,41,51,44,38,98,75,50,30.23,30.14,10,1,10,0.02
2013-3-30,55,46,40,48,44,38,97,91,72,30.18,29.90,15,1,15,0.15
2013-3-31,71,57,47,53,44,36,97,68,29,29.91,29.82,22,2,22,0.00
2013-4-1,54,44,35,38,27,19,68,51,32,30.23,29.90,18,2,18,0.00
2013-4-2,51,39,27,27,21,14,79,51,25,30.36,30.22,12,1,12,0.00
2013-4-3,56,42,28,31,25,18,76,53,33,30.39,30.23,9,1,15,0.00
2013-4-4,64,48,30,34,26,23,78,47,24,30.24,30.01,10,0,10,0.00
2013-4-5,70,53,37,43,34,24,73,50,27,30.16,30.00,10,1,10,0.00
2013-4-6,76,62,48,46,40,36,70,46,28,30.01,29.68,27,4,27,0.00
2013-4-7,80,67,56,60,53,44,91,62,38,29.88,29.67,23,2,23,0.21
2013-4-8,80,69,59,65,58,54,92,71,52,29.83,29.67,20,4,20,0.04
2013-4-9,81,71,63,66,61,57,83,71,58,29.84,29.75,26,3,26,0.00
2013-4-10,85,70,60,70,64,59,97,82,54,29.78,29.53,34,3,34,1.32
2013-4-11,60,46,40,59,42,32,97,84,71,29.75,29.61,21,5,21,0.05
2013-4-12,46,41,36,35,32,30,86,72,61,30.01,29.72,19,4,19,0.00
2013-4-13,64,50,33,44,37,30,96,65,39,30.06,29.87,13,2,17,0.00
2013-4-14,80,63,46,58,49,42,85,62,31,29.87,29.56,29,4,33,0.00
2013-4-15,70,62,54,63,57,50,95,83,71,29.89,29.68,17,2,17,0.01
2013-4-16,54,48,45,50,46,44,96,93,87,30.12,29.85,15,1,15,0.64
2013-4-17,85,65,48,71,58,47,97,80,53,30.10,29.62,26,3,26,0.00
2013-4-18,75,59,41,67,55,33,99,87,73,29.76,29.51,30,5,30,2.32
2013-4-19,54,44,38,37,30,25,75,59,37,30.06,29.75,29,6,29,0.01
2013-4-20,61,46,31,41,31,26,92,58,33,30.31,30.06,11,0,11,0.00
2013-4-21,65,52,42,47,39,33,74,60,46,30.40,30.22,16,2,16,0.00
2013-4-22,73,59,39,51,43,36,91,58,35,30.24,29.94,18,2,18,0.00
2013-4-23,60,51,40,57,48,38,96,88,63,30.02,29.84,17,1,17,1.07
2013-4-24,56,45,38,41,35,29,95,73,39,30.25,29.99,13,2,19,0.07
2013-4-25,66,52,35,44,35,30,89,57,31,30.34,30.22,17,1,17,0.00
2013-4-26,59,52,45,51,45,39,91,78,64,30.36,30.24,16,1,16,0.01
2013-4-27,54,51,48,53,50,46,97,96,90,30.26,29.91,11,0,11,0.53
2013-4-28,58,54,49,53,51,47,98,91,81,29.95,29.87,13,1,13,0.00
2013-4-29,81,63,43,67,55,42,97,78,51,29.92,29.74,20,2,20,0.00
2013-4-30,88,74,60,66,58,49,89,61,27,29.89,29.75,25,2,25,0.00
2013-5-1,84,71,55,66,59,53,96,68,41,30.03,29.89,17,1,17,0.00
2013-5-2,74,60,44,64,55,42,97,86,62,30.14,30.01,13,1,13,0.56
2013-5-3,44,41,39,42,40,38,97,96,95,30.07,29.81,14,1,14,2.42
2013-5-4,55,45,39,46,40,38,97,86,59,29.99,29.83,11,0,11,0.01
2013-5-5,62,53,41,60,51,40,100,94,87,29.98,29.86,7,0,7,0.10
2013-5-6,68,60,52,60,55,50,95,83,67,29.95,29.87,14,0,14,0.00
2013-5-7,79,65,55,66,57,53,93,76,48,30.00,29.93,12,0,12,0.00
2013-5-8,83,66,52,65,57,50,95,75,35,30.01,29.92,19,0,19,0.01
2013-5-9,77,68,62,67,61,58,94,80,56,29.94,29.79,20,1,20,0.05
2013-5-10,70,62,56,65,58,52,97,88,74,29.97,29.79,16,1,16,0.08
2013-5-11,71,60,49,60,48,34,93,67,38,30.14,29.95,19,1,19,0.00
2013-5-12,66,52,40,46,36,30,84,55,31,30.22,30.12,14,0,14,0.00
2013-5-13,76,58,37,53,42,35,93,60,29,30.22,29.99,13,0,13,0.00
2013-5-14,92,75,54,66,54,48,88,52,29,29.99,29.76,24,2,25,0.00
2013-5-15,91,79,68,71,61,52,76,55,38,29.89,29.76,23,2,23,0.00
2013-5-16,82,72,63,73,64,58,89,75,50,29.90,29.80,15,1,15,0.00
2013-5-17,79,69,63,72,64,59,94,85,68,29.92,29.86,11,0,11,0.00
2013-5-18,84,72,61,73,66,60,98,83,61,29.97,29.81,12,0,12,0.01
2013-5-19,91,79,68,80,70,65,93,75,50,29.85,29.64,22,2,22,0.00
2013-5-20,80,72,62,72,67,60,97,85,70,29.87,29.64,33,2,33,0.64
2013-5-21,80,69,62,71,64,61,97,85,63,29.77,29.65,18,1,18,0.02
2013-5-22,77,68,60,64,60,54,95,78,56,29.84,29.62,20,2,20,0.00
2013-5-23,68,61,54,63,56,51,94,83,71,30.19,29.84,15,1,15,0.01
2013-5-24,72,58,46,54,46,38,96,68,34,30.38,30.19,9,0,10,0.00
2013-5-25,68,59,46,62,53,44,94,80,60,30.31,30.08,14,0,14,0.06
2013-5-26,84,71,57,74,63,53,89,76,62,30.15,29.94,12,1,14,0.01
2013-5-27,84,72,65,73,65,61,96,79,63,29.96,29.69,24,2,24,0.33
2013-5-28,85,75,66,74,68,64,96,79,60,29.86,29.74,19,2,19,0.03
2013-5-29,87,78,66,72,66,62,92,69,50,29.91,29.76,22,2,22,0.00
2013-5-30,84,74,64,76,68,63,96,81,66,29.87,29.75,23,3,29,0.09
2013-5-31,81,70,63,74,67,62,97,89,74,29.84,29.67,23,3,23,1.32
2013-6-1,78,68,61,72,64,58,98,89,66,29.85,29.67,19,2,19,0.37
2013-6-2,68,63,60,62,58,54,89,84,78,29.99,29.85,15,0,15,0.00
2013-6-3,74,64,56,61,54,49,89,73,51,30.07,29.95,12,0,12,0.00
2013-6-4,78,64,51,67,57,50,96,80,57,30.06,29.96,12,0,12,0.00
2013-6-5,83,67,58,71,62,56,97,85,49,29.98,29.81,5,0,5,0.10
2013-6-6,80,69,60,71,62,56,96,81,59,29.83,29.78,13,0,13,0.01
2013-6-7,77,65,57,68,59,55,94,81,60,29.88,29.83,7,0,10,0.00
2013-6-8,81,68,54,66,58,53,99,74,46,29.94,29.85,11,0,11,0.00
2013-6-9,79,67,62,69,62,58,97,85,65,29.90,29.75,23,1,24,0.37
2013-6-10,81,69,62,70,64,61,97,85,63,29.88,29.74,14,1,14,0.05
2013-6-11,92,76,59,80,70,58,98,81,56,29.92,29.80,14,0,14,0.00
2013-6-12,94,84,72,80,73,69,90,71,55,29.90,29.68,21,2,21,0.00
2013-6-13,85,76,65,73,67,60,87,75,61,29.94,29.69,17,1,17,0.00
2013-6-14,85,72,59,72,63,58,97,75,51,30.05,29.90,11,0,13,0.00
2013-6-15,89,75,66,77,67,61,96,77,58,30.06,29.88,20,1,20,0.12
2013-6-16,85,74,68,78,71,67,98,90,70,29.98,29.85,12,0,12,0.48
2013-6-17,86,72,64,80,70,64,98,92,64,29.91,29.81,33,0,33,1.65
2013-6-18,88,74,61,77,67,60,99,82,51,29.93,29.86,11,0,11,0.01
2013-6-19,87,74,62,75,66,61,97,80,49,30.02,29.92,7,0,7,0.00
2013-6-20,90,78,64,78,70,63,98,78,55,30.07,29.98,14,0,14,0.00
2013-6-21,91,80,70,79,72,68,94,79,61,30.05,29.94,14,1,14,0.00
2013-6-22,89,74,67,80,69,64,95,85,67,30.03,29.93,30,1,30,0.21
2013-6-23,90,75,67,78,69,65,97,84,61,30.04,29.89,21,1,21,0.67
2013-6-24,92,79,66,81,72,66,98,81,56,30.03,29.87,13,1,13,0.00
2013-6-25,93,83,75,82,74,70,87,75,60,29.91,29.73,18,1,19,0.00
2013-6-26,93,79,73,82,75,71,98,87,65,29.81,29.67,25,1,25,0.69
2013-6-27,94,80,69,79,74,68,98,83,53,29.84,29.71,12,0,12,0.00
2013-6-28,90,79,71,76,69,60,97,72,44,29.80,29.65,19,1,19,0.06
2013-6-29,84,72,65,71,64,59,94,77,54,29.70,29.61,18,1,18,0.11
2013-6-30,78,68,64,71,64,61,96,88,69,29.88,29.69,12,0,15,0.11
2013-7-1,81,71,63,69,60,55,95,70,50,29.93,29.85,21,1,21,0.00
2013-7-2,69,64,61,62,60,56,96,87,63,30.02,29.90,12,0,12,0.48
2013-7-3,83,71,61,70,63,60,97,79,54,30.06,29.96,10,0,11,0.00
2013-7-4,85,73,60,72,64,59,97,75,51,30.05,29.95,9,0,9,0.00
2013-7-5,85,74,63,76,68,62,98,82,61,30.04,29.95,7,0,11,0.00
2013-7-6,89,74,66,76,68,63,98,83,51,30.00,29.91,21,0,21,0.00
2013-7-7,91,78,65,77,70,63,96,76,52,30.01,29.93,12,1,12,0.00
2013-7-8,92,82,74,80,73,69,86,76,58,30.05,29.95,11,0,11,0.00
2013-7-9,94,84,76,83,75,71,87,75,59,30.00,29.87,13,1,13,0.00
2013-7-10,88,78,71,82,74,69,95,87,75,29.95,29.84,19,1,19,0.32
2013-7-11,86,74,65,73,66,60,96,76,50,30.01,29.93,11,0,11,0.00
2013-7-12,87,72,59,70,62,58,97,73,42,30.08,29.99,10,0,10,0.00
2013-7-13,86,73,58,72,63,57,98,75,45,30.06,29.96,10,0,10,0.00
2013-7-14,89,76,64,77,69,63,96,80,57,30.10,30.00,13,0,13,0.00
2013-7-15,92,80,71,81,74,70,98,83,60,30.18,30.08,13,0,13,0.01
2013-7-16,92,82,72,81,74,71,98,80,57,30.25,30.16,10,0,10,0.00
2013-7-17,94,82,72,83,75,70,97,80,57,30.28,30.13,6,0,6,0.00
2013-7-18,95,83,73,84,75,71,97,77,53,30.16,29.97,7,0,7,0.00
2013-7-19,96,83,74,82,74,70,91,75,51,29.97,29.82,10,0,10,0.00
2013-7-20,93,81,73,81,73,69,90,78,56,29.88,29.75,14,1,14,0.05
2013-7-21,83,76,72,76,72,69,94,86,73,29.89,29.78,11,0,11,0.01
2013-7-22,92,79,71,79,73,68,96,83,58,29.82,29.72,12,0,12,0.01
2013-7-23,94,82,74,81,73,67,94,76,53,29.85,29.68,11,0,11,0.00
2013-7-24,83,74,63,68,61,55,85,66,44,29.99,29.85,12,0,12,0.00
2013-7-25,85,71,57,67,60,55,95,72,44,30.08,29.99,9,0,9,0.00
2013-7-26,74,70,66,71,65,58,96,84,71,30.03,29.90,12,0,12,0.07
2013-7-27,80,68,56,67,60,52,97,76,46,29.97,29.91,11,0,11,0.01
2013-7-28,83,67,51,63,56,50,96,72,42,30.01,29.95,14,0,14,0.00
2013-7-29,76,67,57,68,63,56,98,86,67,30.12,30.01,7,0,7,0.00
2013-7-30,76,70,65,73,68,63,97,93,82,30.07,29.94,8,0,14,0.43
2013-7-31,85,74,66,78,70,64,97,89,68,30.00,29.93,10,0,10,0.00
2013-8-1,89,74,63,74,65,58,97,76,40,30.04,29.93,6,0,11,0.00
2013-8-2,84,73,64,74,68,61,97,86,65,29.95,29.86,13,0,13,0.14
2013-8-3,88,76,67,79,71,64,98,86,62,30.06,29.88,11,0,12,0.00
2013-8-4,81,71,62,67,63,60,98,78,52,30.13,30.03,11,0,11,0.00
2013-8-5,75,70,65,70,66,62,94,87,77,30.05,29.84,12,1,13,0.00
2013-8-6,89,78,70,77,72,69,97,84,59,29.88,29.79,12,0,12,0.00
2013-8-7,92,78,71,77,72,69,96,82,53,29.87,29.75,18,1,18,0.01
2013-8-8,85,75,71,79,72,69,98,91,78,29.92,29.83,7,0,7,0.00
2013-8-9,84,74,69,77,70,67,97,87,71,30.02,29.89,6,0,6,0.00
2013-8-10,88,76,65,76,67,60,95,76,47,30.09,30.01,9,0,10,0.00
2013-8-11,90,74,59,69,62,58,97,70,38,30.11,29.99,7,0,9,0.00
2013-8-12,81,74,69,77,70,62,94,85,74,30.02,29.86,11,0,11,0.14
2013-8-13,83,73,64,71,65,56,97,79,55,30.09,29.91,7,0,13,0.00
2013-8-14,80,64,53,61,54,49,94,70,44,30.17,30.08,10,0,10,0.00
2013-8-15,78,63,54,61,55,52,97,79,48,30.13,30.03,6,0,9,0.00
2013-8-16,80,66,54,64,57,52,99,77,49,30.11,30.05,9,0,9,0.00
2013-8-17,83,68,56,68,60,54,97,77,49,30.14,30.05,12,0,12,0.00
2013-8-18,86,71,61,70,64,59,96,79,50,30.14,30.02,10,0,10,0.00
2013-8-19,87,74,61,71,64,60,97,76,47,30.09,29.98,10,0,10,0.00
2013-8-20,89,76,63,74,67,62,97,76,49,30.07,29.98,10,0,10,0.00
2013-8-21,92,78,65,74,68,64,97,74,43,30.08,29.98,14,0,14,0.00
2013-8-22,93,80,69,78,72,67,93,77,50,30.06,29.96,14,0,14,0.00
2013-8-23,93,79,71,78,72,67,97,79,51,30.05,29.97,9,0,9,0.00
2013-8-24,93,79,65,76,68,64,97,74,42,30.15,30.04,10,0,10,0.00
2013-8-25,94,79,64,74,68,62,97,71,35,30.22,30.10,10,0,10,0.00
2013-8-26,97,84,74,79,74,70,95,74,46,30.16,30.00,13,0,13,0.00
2013-8-27,97,83,72,78,71,68,92,71,41,30.04,29.93,16,1,16,0.00
2013-8-28,98,82,68,74,69,66,95,68,39,29.99,29.92,13,0,13,0.00
2013-8-29,100,84,71,80,72,69,93,69,42,29.99,29.89,10,0,10,0.00
2013-8-30,102,86,72,80,73,69,93,68,38,29.91,29.77,12,0,12,0.00
2013-8-31,102,88,77,78,73,68,86,64,38,29.79,29.66,20,1,20,0.00
2013-9-1,93,82,74,79,73,70,92,75,57,29.78,29.70,17,0,17,0.00
2013-9-2,90,77,65,72,65,60,92,68,43,29.91,29.78,12,0,12,0.00
2013-9-3,88,72,58,65,59,55,94,67,38,30.04,29.91,10,0,10,0.00
2013-9-4,94,74,56,67,59,53,95,65,30,30.12,30.02,7,0,7,0.00
2013-9-5,94,74,59,69,61,56,95,68,36,30.15,30.08,9,0,9,0.00
2013-9-6,94,77,62,69,64,59,93,67,38,30.13,29.98,11,0,11,0.00
2013-9-7,99,80,62,72,65,60,96,65,32,30.01,29.86,14,0,14,0.00
2013-9-8,90,78,72,77,70,66,95,77,57,29.98,29.84,12,0,12,0.27
2013-9-9,103,85,73,77,72,68,93,68,34,29.92,29.83,12,0,15,0.00
2013-9-10,102,85,72,75,68,62,91,61,28,30.03,29.91,15,1,15,0.00
2013-9-11,101,86,72,73,68,65,86,58,32,30.08,29.95,11,0,11,0.00
2013-9-12,92,80,66,71,65,51,88,62,37,30.04,29.92,15,0,15,0.00
2013-9-13,84,68,54,60,52,44,86,58,33,30.09,30.02,13,0,13,0.00
2013-9-14,83,65,49,55,47,42,91,57,25,30.13,29.99,5,0,7,0.00
2013-9-15,86,70,54,65,55,45,86,62,39,30.06,29.94,11,0,11,0.00
2013-9-16,76,66,60,65,59,54,89,78,56,30.23,30.05,10,0,10,0.02
2013-9-17,74,66,58,66,60,54,91,82,68,30.20,30.02,9,0,9,0.00
2013-9-18,93,76,66,76,68,63,97,78,50,30.03,29.90,13,1,13,0.13
2013-9-19,95,82,74,76,72,68,87,72,47,29.94,29.79,19,1,19,0.00
2013-9-20,78,69,59,71,66,55,96,91,78,29.88,29.82,9,0,9,0.74
2013-9-21,78,63,52,58,53,49,95,73,42,29.94,29.86,14,0,14,0.00
2013-9-22,83,63,46,60,51,44,95,69,35,29.99,29.89,6,0,6,0.00
2013-9-23,84,65,48,59,52,46,94,67,37,30.00,29.88,14,0,14,0.00
2013-9-24,87,68,53,67,59,49,93,75,46,29.91,29.74,14,1,14,0.00
2013-9-25,88,73,64,70,65,60,96,78,48,29.82,29.72,7,0,7,0.00
2013-9-26,90,73,59,70,62,57,96,72,40,29.96,29.82,11,0,11,0.00
2013-9-27,88,72,58,69,60,55,96,69,41,30.06,29.94,15,1,15,0.00
2013-9-28,87,73,63,68,63,56,90,71,50,30.01,29.89,20,1,20,0.04
2013-9-29,84,68,54,68,56,50,92,70,35,30.03,29.92,7,0,11,0.01
2013-9-30,82,65,49,67,57,46,96,78,54,29.96,29.84,12,0,12,0.00
2013-10-1,86,72,62,73,67,60,97,85,60,29.98,29.89,11,0,11,0.00
2013-10-2,87,74,67,75,68,65,97,84,56,30.01,29.90,10,0,13,0.01
2013-10-3,88,77,68,73,69,65,92,77,57,29.92,29.82,20,1,20,0.01
2013-10-4,89,78,69,74,70,67,95,77,54,29.93,29.84,17,1,17,0.00
2013-10-5,78,70,54,73,66,52,95,88,72,29.91,29.80,19,1,19,0.14
2013-10-6,62,54,47,52,46,41,96,75,51,29.89,29.82,25,2,25,0.01
2013-10-7,77,60,50,54,48,45,85,69,38,30.11,29.88,13,0,13,0.00
2013-10-8,80,60,45,59,48,43,96,69,35,30.18,30.08,13,0,13,0.00
2013-10-9,82,61,43,58,50,40,95,70,40,30.16,30.05,11,0,11,0.00
2013-10-10,83,66,51,66,57,49,96,75,48,30.12,29.96,13,0,13,0.00
2013-10-11,84,67,55,65,58,52,96,74,43,30.00,29.86,18,1,18,0.00
2013-10-12,85,67,53,67,59,47,95,77,45,30.17,29.89,7,0,7,0.03
2013-10-13,82,60,45,52,43,39,90,59,24,30.35,30.17,12,0,12,0.00
2013-10-14,70,57,44,54,45,38,84,67,45,30.31,30.01,11,0,11,0.00
2013-10-15,68,63,55,66,59,50,96,89,79,30.02,29.85,13,1,13,0.28
2013-10-16,66,53,45,51,45,40,92,73,49,30.03,29.94,16,1,16,0.00
2013-10-17,70,54,45,53,44,41,98,75,37,29.99,29.89,22,1,22,0.02
2013-10-18,68,54,44,50,43,38,91,68,41,30.04,29.92,12,0,12,0.05
2013-10-19,63,48,40,44,40,36,94,74,39,30.02,29.93,20,1,20,0.19
2013-10-20,75,58,45,48,42,38,76,58,32,29.95,29.82,18,2,18,0.00
2013-10-21,60,51,38,48,41,32,89,71,53,30.05,29.88,12,0,12,0.00
2013-10-22,61,46,33,48,38,31,96,77,49,30.05,29.78,17,1,17,0.01
2013-10-23,56,44,36,38,34,30,89,69,39,30.13,29.98,16,1,16,0.00
2013-10-24,56,42,30,36,30,24,91,65,36,30.41,30.11,18,1,18,0.00
2013-10-25,61,41,25,39,27,22,93,62,29,30.52,30.18,12,0,12,0.00
2013-10-26,70,56,39,46,38,29,68,51,40,30.19,29.98,20,2,20,0.00
2013-10-27,68,43,29,41,30,26,93,64,25,30.13,30.00,10,0,10,0.00
2013-10-28,74,51,32,52,39,29,94,67,35,30.21,30.03,10,0,10,0.00
2013-10-29,58,52,46,57,48,40,96,86,73,30.22,30.02,12,1,12,0.22
2013-10-30,58,58,58,57,57,56,96,96,96,30.04,30.01,4,0,4,0.03
2013-10-31,66,61,48,65,59,46,97,94,90,29.80,29.34,18,1,18,0.72
2013-11-1,65,54,47,50,45,40,95,76,47,29.84,29.60,22,2,22,0.01
2013-11-2,49,46,44,43,41,40,86,84,81,29.94,29.82,10,1,10,0.00
2013-11-3,62,61,60,39,37,35,43,40,38,30.24,30.17,14,3,14,0.00
2013-11-4,60,56,48,47,45,40,74,68,57,30.21,30.08,20,2,20,0.00
2013-11-5,60,56,52,55,51,46,95,86,73,30.23,29.95,18,1,18,0.23
2013-11-6,59,49,37,58,46,34,96,91,82,30.27,29.86,25,2,25,0.30
2013-11-7,44,40,37,34,33,31,89,75,66,30.32,30.27,5,0,6,0.01
2013-11-8,62,46,29,40,33,26,93,63,30,30.37,30.05,23,2,23,0.00
2013-11-9,72,56,46,45,39,36,70,56,33,30.21,30.03,21,2,21,0.00
2013-11-10,64,49,36,37,33,29,81,57,28,30.41,30.21,11,0,11,0.00
2013-11-11,58,42,35,42,36,30,86,78,53,30.26,30.18,11,0,11,0.00
2013-11-12,42,30,21,30,20,15,92,66,42,30.77,30.49,20,2,20,0.00
2013-11-13,51,33,17,25,16,13,90,55,24,30.71,30.30,15,1,15,0.00
2013-11-14,62,46,29,28,22,17,65,41,18,30.30,30.02,17,2,17,0.00
2013-11-15,61,51,46,44,35,26,85,56,35,30.05,29.91,15,1,15,0.00
2013-11-16,66,58,47,62,54,43,93,85,75,29.91,29.58,25,4,25,0.11
2013-11-17,81,66,50,67,49,23,93,62,21,29.96,29.33,39,6,39,0.03
2013-11-18,59,47,35,40,33,26,91,59,34,30.29,29.96,20,2,20,0.00
2013-11-19,51,39,29,32,28,25,92,68,45,30.35,30.20,8,0,8,0.00
2013-11-20,42,37,34,37,31,27,85,77,69,30.21,30.09,12,1,12,0.05
2013-11-21,50,50,48,49,48,42,96,95,80,30.17,30.06,7,0,7,0.26
2013-11-22,50,39,35,49,36,31,96,90,84,30.53,30.17,17,3,17,0.01
2013-11-23,36,28,18,31,19,10,88,68,43,30.74,30.51,18,3,18,0.00
2013-11-24,34,23,13,17,11,6,92,61,33,30.77,30.44,8,0,9,0.00
2013-11-25,37,32,27,25,20,15,69,59,47,30.44,30.15,11,1,11,0.00
2013-11-26,44,33,24,31,23,12,81,67,57,30.26,30.08,22,3,22,0.00
2013-11-27,32,24,18,14,11,9,74,58,41,30.39,30.25,18,2,21,0.00
2013-11-28,50,33,19,26,19,10,74,58,38,30.50,30.25,17,1,17,0.00
2013-11-29,49,34,21,29,24,16,95,67,43,30.60,30.36,11,0,11,0.00
2013-11-30,64,44,28,40,34,25,93,71,41,30.36,30.07,12,1,12,0.00
2013-12-1,63,47,33,45,38,30,96,72,48,30.12,29.86,8,0,8,0.00
2013-12-2,62,47,37,47,41,33,91,79,58,29.86,29.65,10,0,10,0.00
2013-12-3,62,52,44,53,48,42,96,89,69,29.68,29.60,13,1,13,0.00
2013-12-4,69,55,40,59,50,34,97,84,63,29.85,29.48,20,2,20,0.00
2013-12-5,40,28,22,34,21,15,88,76,64,30.31,29.84,17,3,17,0.00
2013-12-6,23,20,15,19,14,5,88,75,60,30.61,30.28,17,2,17,0.00
2013-12-7,30,19,10,12,8,4,78,64,44,30.73,30.46,10,1,10,0.04
2013-12-8,28,24,20,26,21,11,99,86,64,30.46,30.03,15,1,15,0.00
2013-12-9,28,25,22,26,18,14,91,74,63,30.34,30.10,21,2,21,0.00
2013-12-10,39,26,16,19,15,10,81,63,42,30.33,30.25,24,2,24,0.02
2013-12-11,37,25,12,24,14,2,92,66,50,30.67,30.30,20,2,20,0.01
2013-12-12,40,24,8,18,11,1,81,58,35,30.66,30.26,13,1,13,0.01
2013-12-13,37,30,24,32,25,16,94,80,57,30.26,29.93,11,0,12,0.31
2013-12-14,34,31,27,33,30,24,95,93,88,30.16,29.83,23,2,23,0.10
2013-12-15,41,31,24,31,26,21,90,81,59,30.21,30.01,16,2,16,0.17
2013-12-16,48,35,27,36,29,24,92,81,60,30.14,29.97,10,0,10,0.11
2013-12-17,44,34,26,33,26,18,92,74,55,30.28,30.11,19,2,19,0.01
2013-12-18,56,40,22,39,27,17,88,63,36,30.27,29.91,23,2,23,0.00
2013-12-19,61,52,45,52,45,39,85,77,66,29.92,29.74,19,2,19,0.00
2013-12-20,71,54,37,61,48,34,91,83,67,29.85,29.65,24,3,24,0.11
2013-12-21,37,34,32,34,32,31,95,94,91,29.83,29.56,13,1,13,0.89
2013-12-22,34,32,28,33,30,24,96,92,85,30.29,29.65,16,2,21,0.06
2013-12-23,29,22,11,24,16,5,92,79,69,30.61,30.29,17,3,17,0.00
2013-12-24,27,16,4,13,6,0,92,65,39,30.66,30.35,18,2,18,0.00
2013-12-25,38,31,22,31,25,14,92,77,69,30.37,30.24,16,2,16,0.00
2013-12-26,53,37,25,34,26,22,93,67,33,30.38,30.24,13,1,13,0.00
2013-12-27,58,42,30,35,28,23,83,61,34,30.38,30.22,13,1,13,0.00
2013-12-28,62,46,30,35,30,25,85,56,29,30.23,29.88,16,2,16,0.00
2013-12-29,44,31,17,32,23,8,82,72,58,30.28,29.84,19,4,19,0.00
2013-12-30,30,21,10,15,6,2,71,53,35,30.38,30.23,14,1,14,0.00
2013-12-31,48,35,22,26,21,14,76,56,37,30.42,30.15,22,2,22,0.00
2014-1-1,53,38,25,33,27,22,90,67,43,30.16,29.99,17,1,17,0.00
2014-1-2,25,18,8,22,12,3,90,78,64,30.51,30.06,18,4,18,0.02